FW3877 Weather Reports


time (UTC)temp
F
wind
direction
speed
knots
gust
knots
rain 1hr
in
rain 24hr
in
rain mn
in
humidity
%
barometer
mb
20260902215704 60 245 5.2 8.7 0.03 0.09 0.09 95 1009.6
20260902215204 60 252 6.1 10.4 0.02 0.09 0.09 95 1009.6
20260902214704 60 252 6.1 10.4 0.02 0.08 0.08 95 1009.7
20260902214204 60 258 6.1 12.2 0.01 0.07 0.07 95 1009.7
20260902213204 60 264 7.8 11.3 0.00 0.06 0.06 95 1009.4
20260902212704 60 247 7.0 11.3 0.00 0.06 0.06 95 1009.4
20260902212203 60 255 7.8 12.2 0.00 0.06 0.06 95 1009.5
20260902211703 60 260 7.8 11.3 0.00 0.06 0.06 95 1009.5
20260902211203 60 257 8.7 13.0 0.00 0.06 0.06 95 1009.2
20260902210203 60 255 8.7 15.6 0.00 0.06 0.06 95 1009.2
20260902205704 60 253 11.3 17.4 0.00 0.06 0.06 95 1009.2
20260902205204 60 255 8.7 13.0 0.00 0.06 0.06 96 1009.0
20260902204704 60 265 8.7 15.6 0.00 0.06 0.06 96 1009.0
20260902204204 60 256 8.7 17.4 0.00 0.06 0.06 96 1009.0
20260902203703 60 269 10.4 15.6 0.00 0.06 0.06 96 1008.9
20260902203204 61 245 9.6 17.4 0.00 0.06 0.06 96 1008.8
20260902202203 61 251 12.2 17.4 0.00 0.06 0.06 96 1008.9
20260902201703 61 245 8.7 13.9 0.00 0.06 0.06 96 1008.7
20260902201204 61 257 8.7 17.4 0.00 0.06 0.06 96 1008.3
20260902200703 61 247 7.8 13.0 0.00 0.06 0.06 96 1008.5
20260902195704 61 240 8.7 13.9 0.00 0.06 0.06 96 1008.3
20260902194704 61 251 6.1 11.3 0.00 0.06 0.06 96 1008.5
20260902193704 61 250 8.7 14.8 0.01 0.06 0.06 96 1008.4
20260902192704 61 240 7.8 11.3 0.01 0.06 0.06 96 1008.0
20260902192204 61 233 6.1 11.3 0.01 0.06 0.06 96 1008.3
20260902191203 61 260 8.7 13.9 0.01 0.06 0.06 96 1008.3
20260902190704 61 240 7.0 12.2 0.01 0.06 0.06 96 1008.1
20260902190204 62 253 5.2 11.3 0.02 0.06 0.06 96 1008.2
20260902185703 62 252 7.0 10.4 0.02 0.06 0.06 96 1008.1
20260902185205 62 261 7.0 11.3 0.02 0.06 0.06 96 1008.3
20260902184704 62 243 7.8 11.3 0.02 0.06 0.06 96 1008.1
20260902184204 62 255 7.0 13.0 0.02 0.06 0.06 96 1008.0
20260902183203 62 234 7.8 12.2 0.01 0.06 0.06 96 1007.8
20260902182704 63 233 7.0 12.2 0.01 0.06 0.06 96 1007.8
20260902182205 63 228 6.1 13.0 0.01 0.06 0.06 96 1007.9
20260902181704 63 253 6.1 10.4 0.01 0.06 0.06 96 1008.0
20260902181205 63 235 7.8 13.0 0.01 0.06 0.06 96 1007.9
20260902180704 64 216 7.8 10.4 0.01 0.06 0.06 95 1007.6
20260902171205 64 216 7.8 10.4 0.00 0.05 0.05 95 1007.5
20260902165204 64 251 7.8 11.3 0.00 0.05 0.05 95 1007.6
20260902164704 64 238 8.7 14.8 0.00 0.05 0.05 95 1007.6
20260902164204 64 246 7.8 17.4 0.00 0.05 0.05 95 1007.6
20260902163703 64 240 7.0 13.0 0.00 0.05 0.05 95 1007.7
20260902163204 64 238 7.0 13.0 0.00 0.05 0.05 94 1007.5
20260902162704 64 234 7.8 12.2 0.00 0.05 0.05 94 1007.7
20260902162204 64 222 6.1 12.2 0.00 0.05 0.05 94 1007.7
20260902161704 64 213 4.3 14.8 0.00 0.05 0.05 94 1007.6
20260902161204 64 211 7.0 10.4 0.00 0.05 0.05 94 1007.6
20260902160704 64 213 6.1 10.4 0.00 0.05 0.05 93 1007.6
20260902155703 64 235 8.7 13.0 0.00 0.05 0.05 93 1007.5
20260902155203 64 279 7.8 12.2 0.00 0.05 0.05 93 1007.6
20260902154704 64 216 6.1 13.0 0.00 0.05 0.05 92 1007.5
20260902153704 65 234 8.7 13.9 0.00 0.05 0.05 92 1007.5
20260902153204 65 235 5.2 10.4 0.00 0.05 0.05 92 1007.4
20260902152703 65 248 7.0 12.2 0.00 0.05 0.05 92 1007.5
20260902152204 65 241 7.0 10.4 0.01 0.05 0.05 92 1007.7
20260902151704 65 247 7.8 12.2 0.01 0.05 0.05 92 1007.5
20260902151204 65 254 6.1 11.3 0.01 0.05 0.05 92 1007.7
20260902150704 65 240 8.7 12.2 0.01 0.06 0.05 93 1007.6
20260902150203 65 285 8.7 13.0 0.01 0.08 0.05 93 1007.7
20260902145704 64 271 5.2 12.2 0.01 0.18 0.05 93 1007.7
20260902144704 64 254 5.2 10.4 0.01 0.29 0.05 93 1007.8
20260902144204 64 244 7.8 12.2 0.01 0.30 0.05 93 1007.8
20260902143704 63 228 6.1 14.8 0.01 0.30 0.05 93 1007.7
20260902143205 63 241 7.0 13.9 0.01 0.31 0.05 93 1007.9
20260902142705 63 267 6.1 13.0 0.01 0.31 0.05 92 1007.8
20260902141704 64 260 9.6 14.8 0.00 0.31 0.04 92 1007.8
20260902141204 64 260 7.8 12.2 0.00 0.35 0.04 92 1007.8
20260902135703 64 225 11.3 21.7 0.00 0.39 0.04 92 1007.9
20260902135204 64 269 8.7 13.9 0.00 0.40 0.04 92 1007.7
20260902134704 64 251 10.4 18.2 0.00 0.41 0.04 92 1007.8
20260902134204 65 266 8.7 17.4 0.00 0.43 0.04 92 1007.9
20260902133705 65 230 9.6 13.9 0.00 0.45 0.04 92 1007.9
20260902133204 65 246 8.7 13.9 0.00 0.46 0.04 92 1007.9
20260902132203 65 241 7.0 12.2 0.00 0.49 0.04 92 1007.9
20260902131704 65 255 7.8 13.9 0.00 0.50 0.04 92 1008.0
20260902131204 65 219 9.6 15.6 0.00 0.54 0.04 92 1007.9
20260902130204 65 243 8.7 17.4 0.00 0.54 0.04 92 1008.1
20260902124704 66 247 7.8 13.9 0.00 0.54 0.04 93 1007.8
20260902124204 66 251 9.6 14.8 0.00 0.54 0.04 93 1007.8
20260902123704 66 238 11.3 18.2 0.00 0.54 0.04 94 1007.7
20260902123204 66 241 9.6 14.8 0.00 0.54 0.04 94 1007.6
20260902122704 66 238 6.1 12.2 0.00 0.54 0.04 95 1007.5
20260902122205 65 248 8.7 14.8 0.00 0.54 0.04 95 1007.6
20260902121705 64 234 8.7 13.9 0.00 0.54 0.04 95 1007.6
20260902120704 65 235 6.1 10.4 0.00 0.54 0.04 95 1007.5
20260902120204 65 234 8.7 13.9 0.00 0.54 0.04 95 1007.5
20260902115704 65 219 5.2 10.4 0.00 0.54 0.04 95 1007.6
20260902114703 64 228 5.2 8.7 0.00 0.54 0.04 94 1007.7
20260902114203 65 242 4.3 8.7 0.00 0.54 0.04 94 1007.7
20260902113704 65 231 4.3 8.7 0.00 0.54 0.04 94 1007.6
20260902113203 65 230 5.2 8.7 0.00 0.54 0.04 94 1007.6
20260902112204 65 197 5.2 8.7 0.00 0.54 0.04 94 1007.7
20260902111704 64 205 5.2 8.7 0.00 0.54 0.04 94 1007.7
20260902111204 64 193 4.3 7.8 0.00 0.54 0.04 94 1007.7
20260902110704 64 231 5.2 8.7 0.00 0.54 0.04 94 1007.7
20260902110204 64 182 4.3 8.7 0.00 0.54 0.04 94 1007.7
20260902105703 64 208 6.1 11.3 0.00 0.54 0.04 94 1007.7
20260902105204 64 201 6.1 11.3 0.00 0.54 0.04 95 1007.7
20260902104204 64 217 5.2 10.4 0.00 0.54 0.04 95 1007.7
20260902103704 64 203 5.2 10.4 0.00 0.54 0.04 95 1007.7
20260902103204 64 218 5.2 7.8 0.00 0.55 0.04 95 1007.7
20260902102704 63 170 4.3 7.0 0.00 0.55 0.04 95 1007.7
20260902101204 63 177 3.5 7.0 0.00 0.55 0.04 96 1007.7
20260902100704 62 176 2.6 7.8 0.00 0.55 0.04 96 1007.8
20260902100203 62 158 4.3 7.8 0.00 0.55 0.04 96 1007.8
20260902095704 62 185 5.2 10.4 0.00 0.55 0.04 96 1007.8
20260902095204 62 177 4.3 10.4 0.00 0.55 0.04 96 1007.8
20260902094703 62 177 4.3 7.8 0.00 0.55 0.04 96 1007.9
20260902094204 61 160 5.2 10.4 0.00 0.56 0.04 96 1007.8
20260902093704 61 174 4.3 7.0 0.00 0.57 0.04 96 1007.9
20260902092204 60 194 5.2 7.8 0.00 0.57 0.04 96 1008.2
20260902091704 60 187 2.6 7.8 0.00 0.57 0.04 96 1008.2
20260902091204 60 193 6.1 10.4 0.00 0.57 0.04 96 1008.1
20260902090703 60 160 4.3 10.4 0.00 0.57 0.04 96 1008.1
20260902090204 60 182 4.3 10.4 0.00 0.57 0.04 96 1008.3
20260902085703 60 167 4.3 7.8 0.00 0.57 0.04 96 1008.3
20260902085204 60 183 4.3 6.1 0.00 0.57 0.04 96 1008.3
20260902084703 60 159 5.2 12.2 0.00 0.57 0.04 96 1008.3
20260902084204 60 202 4.3 10.4 0.00 0.57 0.04 96 1008.3
20260902083704 59 149 4.3 8.7 0.00 0.57 0.04 96 1008.3
20260902083205 59 158 5.2 10.4 0.00 0.57 0.04 96 1008.3
20260902082704 60 168 7.0 11.3 0.00 0.57 0.04 96 1008.2
20260902082204 59 130 5.2 10.4 0.00 0.57 0.04 96 1008.3
20260902081704 59 134 7.0 12.2 0.00 0.57 0.04 96 1008.1
20260902080704 59 140 5.2 11.3 0.00 0.57 0.04 96 1008.1
20260902080204 59 132 5.2 10.4 0.00 0.57 0.04 96 1008.1
20260902075204 59 175 4.3 11.3 0.00 0.57 0.04 96 1008.4
20260902074204 58 129 4.3 7.8 0.00 0.57 0.04 96 1008.4
20260902073203 58 137 4.3 8.7 0.00 0.57 0.04 96 1008.5
20260902072204 58 129 4.3 7.0 0.00 0.58 0.04 96 1008.5
20260902071703 58 123 2.6 7.8 0.00 0.58 0.04 96 1008.6
20260902071204 58 122 4.3 7.8 0.00 0.58 0.04 96 1008.6
20260902070704 58 125 4.3 8.7 0.00 0.59 0.04 96 1008.8
20260902065704 58 137 2.6 7.0 0.00 0.60 0.04 96 1008.9
20260902064204 57 136 4.3 7.8 0.00 0.65 0.04 96 1008.7
20260902063704 57 111 3.5 7.8 0.00 0.67 0.04 96 1009.0
20260902063204 57 129 2.6 7.0 0.00 0.67 0.04 96 1008.9
20260902062203 57 130 4.3 10.4 0.00 0.68 0.04 96 1009.1
20260902061704 57 144 6.1 11.3 0.00 0.68 0.04 96 1009.0
20260902060704 57 120 4.3 8.7 0.00 0.68 0.04 96 1009.1
20260902055204 57 135 4.3 8.7 0.00 0.68 0.04 96 1009.4
20260902054704 57 143 4.3 7.8 0.00 0.68 0.04 96 1009.5
20260902054203 57 139 4.3 7.0 0.00 0.68 0.04 96 1009.3
20260902053704 57 154 6.1 7.0 0.00 0.68 0.04 96 1009.4
20260902052703 57 111 1.7 6.1 0.00 0.68 0.04 96 1009.5
20260902052204 57 129 2.6 6.1 0.00 0.68 0.04 96 1009.8
20260902051704 57 119 2.6 6.1 0.00 0.68 0.04 96 1009.8
20260902050703 57 146 4.3 7.8 0.01 0.68 0.04 96 1009.9
20260902050204 57 133 3.5 7.8 0.01 0.68 0.04 96 1010.0
20260902045204 57 130 2.6 7.0 0.01 0.68 0.04 96 1010.3
20260902044703 57 146 2.6 6.1 0.02 0.68 0.04 96 1010.3
20260902043705 57 155 2.6 7.0 0.02 0.68 0.04 96 1010.3
20260902043204 57 152 4.3 7.0 0.02 0.68 0.04 96 1010.3
20260902042703 57 145 3.5 8.7 0.02 0.68 0.04 96 1010.4
20260902042204 57 132 4.3 7.0 0.03 0.68 0.04 96 1010.5
20260902041703 57 144 2.6 6.1 0.03 0.68 0.04 96 1010.5
20260902041204 57 155 2.6 8.7 0.03 0.67 0.03 95 1010.6
20260902040704 57 133 3.5 6.1 0.03 0.67 0.03 95 1010.7
20260902040204 57 135 1.7 4.3 0.03 0.68 0.03 95 1010.9
20260902035703 57 143 2.6 6.1 0.03 0.68 0.03 95 1010.9
20260902035204 57 143 2.6 5.2 0.03 0.68 0.03 95 1011.0
20260902034204 57 107 0.9 2.6 0.02 0.67 0.02 95 1011.1
20260902033704 57 112 1.7 6.1 0.02 0.66 0.02 95 1011.2
20260902032704 57 129 2.6 6.1 0.02 0.66 0.02 95 1011.2
20260902032204 57 125 2.6 7.0 0.01 0.65 0.01 95 1011.3
20260902031704 57 121 3.5 10.4 0.01 0.65 0.01 95 1011.2
20260902030704 57 152 1.7 7.8 0.00 0.65 0.00 95 1011.6
20260902030204 57 150 4.3 10.4 0.00 0.65 0.00 95 1011.6
20260902025703 57 153 5.2 7.8 0.00 0.65 0.00 95 1011.6
20260902025204 57 163 4.3 7.8 0.00 0.65 0.00 95 1011.6
20260902024704 57 151 3.5 8.7 0.00 0.65 0.00 95 1011.7
20260902024204 57 157 4.3 7.8 0.00 0.65 0.00 95 1011.7
20260902023705 57 164 5.2 8.7 0.00 0.65 0.00 95 1011.8
20260902022704 57 162 5.2 10.4 0.00 0.65 0.00 95 1012.0
20260902022204 57 161 4.3 7.0 0.00 0.65 0.00 95 1012.0
20260902021704 57 171 4.3 8.7 0.00 0.65 0.00 95 1012.1
20260902021204 57 172 3.5 6.1 0.00 0.65 0.00 95 1012.2
20260902020704 57 156 1.7 5.2 0.00 0.65 0.00 95 1012.2
20260902015204 57 162 2.6 5.2 0.00 0.65 0.00 95 1012.4
20260902014703 57 171 1.7 5.2 0.00 0.65 0.00 95 1012.5
20260902013703 57 164 3.5 6.1 0.00 0.65 0.00 95 1012.6
20260902013203 57 178 4.3 7.8 0.00 0.65 0.00 95 1012.6
20260902012204 57 175 4.3 8.7 0.00 0.65 0.00 95 1012.8
20260902011704 57 158 2.6 6.1 0.00 0.65 0.00 95 1012.9
20260902010704 58 175 2.6 5.2 0.00 0.65 0.00 95 1012.8
20260902010204 58 207 2.6 6.1 0.00 0.65 0.00 95 1012.8
20260902005203 58 179 3.5 7.0 0.00 0.65 0.00 96 1012.9
20260902004704 58 178 2.6 6.1 0.00 0.65 0.00 96 1012.9
20260902004204 58 174 2.6 7.0 0.00 0.65 0.00 96 1013.0
20260902003204 58 187 2.6 7.8 0.00 0.65 0.00 96 1013.3
20260902002704 58 186 3.5 6.1 0.00 0.65 0.00 96 1013.4
20260902002203 58 208 4.3 8.7 0.00 0.65 0.00 96 1013.5
20260902001705 58 213 4.3 7.0 0.00 0.65 0.00 96 1013.7
20260902001204 58 221 2.6 5.2 0.00 0.65 0.00 96 1013.6
20260902000704 58 189 2.6 4.3 0.00 0.65 0.00 96 1013.6
20260902000204 58 207 4.3 7.8 0.00 0.65 0.00 96 1013.5
20260901235704 58 207 1.7 2.6 0.00 0.65 0.00 96 1013.5
20260901235204 58 187 1.7 2.6 0.00 0.65 0.00 96 1013.6
20260901234204 58 192 1.7 2.6 0.00 0.65 0.00 96 1013.7
20260901233704 58 195 1.7 4.3 0.00 0.65 0.00 96 1013.7
20260901233204 58 178 2.6 5.2 0.00 0.65 0.00 96 1013.7
20260901232704 58 172 2.6 5.2 0.00 0.65 0.00 95 1013.9
20260901231704 58 173 2.6 5.2 0.00 0.65 0.00 95 1013.8
20260901231204 58 181 1.7 5.2 0.00 0.65 0.00 95 1013.9
20260901230704 58 210 1.7 4.3 0.00 0.65 0.00 96 1013.9
20260901230204 58 207 1.7 4.3 0.00 0.65 0.00 95 1013.9
20260901225704 58 218 2.6 4.3 0.00 0.65 0.65 95 1013.9
20260901225203 58 176 2.6 4.3 0.00 0.65 0.65 95 1014.0
20260901224704 58 175 1.7 4.3 0.00 0.65 0.65 95 1014.2
20260901224204 58 182 1.7 4.3 0.00 0.65 0.65 95 1014.2
20260901223703 58 179 0.9 2.6 0.00 0.65 0.65 95 1014.3
20260901223204 58 190 1.7 4.3 0.00 0.65 0.65 95 1014.2
20260901222703 59 192 2.6 5.2 0.00 0.65 0.65 95 1014.2
20260901221704 59 215 2.6 5.2 0.00 0.65 0.65 95 1014.2
20260901220704 59 213 2.6 5.2 0.00 0.65 0.65 95 1014.3
20260901220204 59 193 1.7 4.3 0.00 0.65 0.65 95 1014.3